AUR752 EGKK-EGHQ

Flight info

Callsign AUR752
Flight time 0h 46m
Altitude 32000
Route IMVUR N63 SAM L620 GIBSO DCT DAWLY
Aircraft B38M/M-SDE1FGHILORVWXY/HB1

Departure

Time 2026-04-26 15:12
Airport London Gatwick Airport (EGKK)

Arrival

Time 2026-04-26 15:58
Airport Cornwall Airport Newquay (EGHQ)
Time Latitude Longitude Altitude Speed Heading
2026-04-26 14:00 51.15369 -0.16276 206 ft 0 kts 357°
2026-04-26 14:58 51.15346 -0.16273 206 ft 4 kts 356°
2026-04-26 14:59 51.15319 -0.16270 206 ft 4 kts 356°
2026-04-26 14:59 51.15303 -0.16268 211 ft 2 kts 356°
2026-04-26 14:59 51.15326 -0.16273 206 ft 4 kts 341°
2026-04-26 14:59 51.15331 -0.16287 215 ft 4 kts 282°
2026-04-26 15:00 51.15318 -0.16330 214 ft 4 kts 229°
2026-04-26 15:00 51.15316 -0.16345 215 ft 1 kts 258°
2026-04-26 15:03 51.15311 -0.16382 213 ft 8 kts 260°
2026-04-26 15:04 51.15335 -0.16475 216 ft 12 kts 342°
2026-04-26 15:04 51.15364 -0.16540 217 ft 9 kts 261°
2026-04-26 15:04 51.15329 -0.16695 212 ft 21 kts 234°
2026-04-26 15:04 51.15286 -0.16944 206 ft 26 kts 257°
2026-04-26 15:05 51.15245 -0.17243 218 ft 28 kts 257°
2026-04-26 15:05 51.15215 -0.17454 206 ft 31 kts 257°
2026-04-26 15:05 51.15154 -0.17897 213 ft 32 kts 257°
2026-04-26 15:05 51.15108 -0.18213 209 ft 31 kts 256°
2026-04-26 15:06 51.15063 -0.18550 205 ft 31 kts 258°
2026-04-26 15:06 51.15020 -0.18861 211 ft 30 kts 259°
2026-04-26 15:06 51.14976 -0.19180 211 ft 30 kts 257°
2026-04-26 15:06 51.14931 -0.19507 212 ft 32 kts 257°
2026-04-26 15:07 51.14843 -0.20152 214 ft 28 kts 258°
2026-04-26 15:07 51.14799 -0.20476 212 ft 31 kts 257°
2026-04-26 15:07 51.14751 -0.20823 213 ft 31 kts 257°
2026-04-26 15:08 51.14705 -0.21153 209 ft 26 kts 257°
2026-04-26 15:08 51.14658 -0.21328 209 ft 10 kts 204°
2026-04-26 15:08 51.14621 -0.21327 206 ft 0 kts 166°
2026-04-26 15:09 51.14620 -0.21327 213 ft 0 kts 166°
2026-04-26 15:09 51.14591 -0.21315 210 ft 11 kts 165°
2026-04-26 15:10 51.14522 -0.21163 209 ft 20 kts 83°
2026-04-26 15:10 51.14530 -0.21100 206 ft 0 kts 78°
2026-04-26 15:11 51.14531 -0.21093 206 ft 2 kts 77°
2026-04-26 15:11 51.14558 -0.20894 209 ft 52 kts 77°
2026-04-26 15:11 51.14691 -0.19933 210 ft 122 kts 78°
2026-04-26 15:11 51.14893 -0.18395 479 ft 151 kts 79°
2026-04-26 15:12 51.15103 -0.16698 1171 ft 156 kts 76°
2026-04-26 15:12 51.15362 -0.15007 1967 ft 163 kts 76°
2026-04-26 15:12 51.15633 -0.13140 2460 ft 182 kts 78°
2026-04-26 15:12 51.15925 -0.11048 2850 ft 207 kts 78°
2026-04-26 15:13 51.16261 -0.08701 3732 ft 223 kts 76°
2026-04-26 15:13 51.17042 -0.06614 4898 ft 227 kts 43°
2026-04-26 15:13 51.18435 -0.05335 5871 ft 241 kts 15°
2026-04-26 15:13 51.20159 -0.05312 6630 ft 261 kts 343°
2026-04-26 15:14 51.21740 -0.06864 7393 ft 277 kts 310°
2026-04-26 15:14 51.22557 -0.09610 8507 ft 277 kts 279°
2026-04-26 15:14 51.22470 -0.12694 9511 ft 283 kts 257°
2026-04-26 15:14 51.22079 -0.15794 10540 ft 287 kts 259°
2026-04-26 15:15 51.21720 -0.18933 11708 ft 288 kts 259°
2026-04-26 15:15 51.21357 -0.22081 12873 ft 289 kts 259°
2026-04-26 15:15 51.20990 -0.25262 14014 ft 293 kts 259°
2026-04-26 15:15 51.20617 -0.28485 15106 ft 298 kts 259°
2026-04-26 15:16 51.20238 -0.31762 16168 ft 303 kts 259°
2026-04-26 15:16 51.19834 -0.35086 17202 ft 307 kts 257°
2026-04-26 15:16 51.19395 -0.38446 18202 ft 312 kts 257°
2026-04-26 15:16 51.18957 -0.41814 19121 ft 317 kts 257°
2026-04-26 15:17 51.18502 -0.45322 20051 ft 321 kts 257°
2026-04-26 15:17 51.18200 -0.47645 20635 ft 323 kts 257°
2026-04-26 15:17 51.17588 -0.52321 21778 ft 328 kts 256°
2026-04-26 15:17 51.16805 -0.55822 22280 ft 343 kts 246°
2026-04-26 15:18 51.15846 -0.59361 22834 ft 353 kts 247°
2026-04-26 15:18 51.14880 -0.62979 23649 ft 355 kts 247°
2026-04-26 15:18 51.13907 -0.66626 24412 ft 359 kts 247°
2026-04-26 15:18 51.12923 -0.70311 24973 ft 362 kts 247°
2026-04-26 15:19 51.11954 -0.73934 25427 ft 359 kts 247°
2026-04-26 15:19 51.10976 -0.77582 25683 ft 357 kts 247°
2026-04-26 15:19 51.10004 -0.81206 25927 ft 356 kts 247°
2026-04-26 15:19 51.09032 -0.84823 26154 ft 354 kts 247°
2026-04-26 15:20 51.08061 -0.88429 26292 ft 354 kts 247°
2026-04-26 15:20 51.07094 -0.92019 26298 ft 353 kts 247°
2026-04-26 15:20 51.06127 -0.95604 26297 ft 352 kts 247°
2026-04-26 15:20 51.05158 -0.99184 26295 ft 352 kts 247°
2026-04-26 15:21 51.04187 -1.02772 26290 ft 352 kts 247°
2026-04-26 15:21 51.03227 -1.06308 26287 ft 352 kts 247°
2026-04-26 15:21 51.02256 -1.09880 26284 ft 352 kts 247°
2026-04-26 15:21 51.01283 -1.13456 26282 ft 352 kts 247°
2026-04-26 15:22 51.00309 -1.17032 26286 ft 352 kts 247°
2026-04-26 15:22 50.99332 -1.20611 26284 ft 352 kts 247°
2026-04-26 15:22 50.98355 -1.24185 26291 ft 352 kts 247°
2026-04-26 15:22 50.97389 -1.27713 26292 ft 352 kts 247°
2026-04-26 15:23 50.96411 -1.31281 26293 ft 352 kts 247°
2026-04-26 15:23 50.95470 -1.34875 26286 ft 352 kts 252°
2026-04-26 15:23 50.94900 -1.38645 26295 ft 352 kts 256°
2026-04-26 15:23 50.94291 -1.42409 26292 ft 352 kts 255°
2026-04-26 15:24 50.93664 -1.46164 26296 ft 352 kts 255°
2026-04-26 15:24 50.93033 -1.49863 26292 ft 352 kts 255°
2026-04-26 15:24 50.92386 -1.53609 26289 ft 352 kts 254°
2026-04-26 15:24 50.91735 -1.57358 26287 ft 352 kts 254°
2026-04-26 15:25 50.91083 -1.61100 26284 ft 352 kts 254°
2026-04-26 15:25 50.90649 -1.63586 26286 ft 352 kts 254°
2026-04-26 15:25 50.89770 -1.68604 26284 ft 352 kts 254°
2026-04-26 15:25 50.89123 -1.72290 26285 ft 352 kts 254°
2026-04-26 15:26 50.88466 -1.76025 26285 ft 352 kts 254°
2026-04-26 15:26 50.87807 -1.79764 26286 ft 352 kts 254°
2026-04-26 15:26 50.87146 -1.83505 26291 ft 352 kts 254°
2026-04-26 15:26 50.86486 -1.87233 26293 ft 352 kts 254°
2026-04-26 15:27 50.85825 -1.90958 26293 ft 352 kts 254°
2026-04-26 15:27 50.85163 -1.94687 26294 ft 352 kts 254°
2026-04-26 15:27 50.84504 -1.98412 26293 ft 352 kts 254°
2026-04-26 15:27 50.83848 -2.02145 26295 ft 352 kts 254°
2026-04-26 15:28 50.83191 -2.05878 26292 ft 352 kts 254°
2026-04-26 15:28 50.82531 -2.09615 26295 ft 352 kts 254°
2026-04-26 15:28 50.81872 -2.13344 26285 ft 352 kts 254°
2026-04-26 15:28 50.81213 -2.17065 26286 ft 352 kts 254°
2026-04-26 15:29 50.80551 -2.20792 26284 ft 352 kts 254°
2026-04-26 15:29 50.79896 -2.24474 26285 ft 352 kts 254°
2026-04-26 15:29 50.78566 -2.31914 26283 ft 352 kts 254°
2026-04-26 15:30 50.77229 -2.39366 26277 ft 352 kts 254°
2026-04-26 15:30 50.76560 -2.43087 26277 ft 352 kts 254°
2026-04-26 15:30 50.75889 -2.46810 26276 ft 352 kts 254°
2026-04-26 15:31 50.75226 -2.50483 26275 ft 352 kts 253°
2026-04-26 15:31 50.73879 -2.57917 26267 ft 352 kts 253°
2026-04-26 15:31 50.73204 -2.61627 26266 ft 352 kts 253°
2026-04-26 15:32 50.72299 -2.66597 26268 ft 352 kts 253°
2026-04-26 15:32 50.71174 -2.72756 26263 ft 352 kts 253°
2026-04-26 15:32 50.70495 -2.76463 26268 ft 352 kts 253°
2026-04-26 15:33 50.69818 -2.80150 26205 ft 345 kts 253°
2026-04-26 15:33 50.69157 -2.83742 25983 ft 337 kts 253°
2026-04-26 15:33 50.68505 -2.87280 25586 ft 335 kts 253°
2026-04-26 15:33 50.67855 -2.90801 25194 ft 332 kts 253°
2026-04-26 15:34 50.67210 -2.94287 24804 ft 330 kts 253°
2026-04-26 15:34 50.66577 -2.97703 24413 ft 328 kts 253°
2026-04-26 15:34 50.65938 -3.01143 24022 ft 325 kts 253°
2026-04-26 15:34 50.65303 -3.04560 23634 ft 323 kts 253°
2026-04-26 15:35 50.64675 -3.07958 23264 ft 322 kts 252°
2026-04-26 15:35 50.64039 -3.11338 22929 ft 323 kts 252°
2026-04-26 15:35 50.63399 -3.14743 22401 ft 325 kts 253°
2026-04-26 15:35 50.62763 -3.18143 22103 ft 320 kts 253°
2026-04-26 15:36 50.62138 -3.21496 21779 ft 317 kts 253°
2026-04-26 15:36 50.61512 -3.24818 21362 ft 316 kts 253°
2026-04-26 15:36 50.60896 -3.28081 20982 ft 314 kts 253°
2026-04-26 15:36 50.60274 -3.31376 20606 ft 312 kts 253°
2026-04-26 15:37 50.59657 -3.34636 20244 ft 309 kts 253°
2026-04-26 15:37 50.59043 -3.37881 19878 ft 307 kts 253°
2026-04-26 15:37 50.58435 -3.41091 19522 ft 305 kts 253°
2026-04-26 15:37 50.57829 -3.44285 19152 ft 302 kts 253°
2026-04-26 15:38 50.57388 -3.47459 18728 ft 303 kts 265°
2026-04-26 15:38 50.57291 -3.50750 18405 ft 299 kts 266°
2026-04-26 15:38 50.57185 -3.54003 18078 ft 296 kts 266°
2026-04-26 15:38 50.57080 -3.57232 17741 ft 294 kts 266°
2026-04-26 15:39 50.56974 -3.60442 17401 ft 292 kts 266°
2026-04-26 15:39 50.56870 -3.63614 17064 ft 290 kts 266°
2026-04-26 15:39 50.56765 -3.66764 16735 ft 287 kts 266°
2026-04-26 15:39 50.56730 -3.67820 16619 ft 286 kts 266°
2026-04-26 15:40 50.56557 -3.72992 16068 ft 286 kts 266°
2026-04-26 15:40 50.56450 -3.76150 15727 ft 291 kts 266°
2026-04-26 15:40 50.56344 -3.79304 15382 ft 293 kts 265°
2026-04-26 15:40 50.56229 -3.82510 15031 ft 292 kts 266°
2026-04-26 15:41 50.56115 -3.85749 14744 ft 293 kts 265°
2026-04-26 15:41 50.56004 -3.88930 14378 ft 296 kts 265°
2026-04-26 15:41 50.55889 -3.92155 14027 ft 293 kts 265°
2026-04-26 15:41 50.55773 -3.95370 13656 ft 295 kts 265°
2026-04-26 15:42 50.55660 -3.98576 13292 ft 294 kts 265°
2026-04-26 15:42 50.55544 -4.01783 12957 ft 293 kts 265°
2026-04-26 15:42 50.55431 -4.04959 12636 ft 289 kts 265°
2026-04-26 15:42 50.55315 -4.08107 12301 ft 287 kts 265°
2026-04-26 15:43 50.55204 -4.11246 11954 ft 287 kts 265°
2026-04-26 15:43 50.55087 -4.14332 11618 ft 285 kts 265°
2026-04-26 15:43 50.54890 -4.19518 11076 ft 282 kts 265°
2026-04-26 15:44 50.54736 -4.23577 10639 ft 280 kts 265°
2026-04-26 15:44 50.54542 -4.28631 10103 ft 277 kts 265°
2026-04-26 15:44 50.54425 -4.31646 9784 ft 275 kts 265°
2026-04-26 15:45 50.54191 -4.37626 9141 ft 272 kts 266°
2026-04-26 15:45 50.54074 -4.40591 8827 ft 271 kts 266°
2026-04-26 15:46 50.53840 -4.46432 8202 ft 267 kts 266°
2026-04-26 15:46 50.53723 -4.49351 7910 ft 266 kts 266°
2026-04-26 15:46 50.53605 -4.52246 7600 ft 264 kts 266°
2026-04-26 15:46 50.53528 -4.54154 7390 ft 263 kts 266°
2026-04-26 15:47 50.53372 -4.57950 6985 ft 261 kts 265°
2026-04-26 15:47 50.53137 -4.63636 6362 ft 259 kts 266°
2026-04-26 15:47 50.53019 -4.66454 6067 ft 258 kts 266°
2026-04-26 15:48 50.52902 -4.69258 5773 ft 256 kts 266°
2026-04-26 15:48 50.52784 -4.72059 5475 ft 256 kts 265°
2026-04-26 15:48 50.52665 -4.74840 5180 ft 254 kts 265°
2026-04-26 15:48 50.52548 -4.77577 4999 ft 247 kts 265°
2026-04-26 15:49 50.52436 -4.80198 4867 ft 239 kts 265°
2026-04-26 15:49 50.52325 -4.82773 4733 ft 232 kts 265°
2026-04-26 15:49 50.52217 -4.85270 4598 ft 226 kts 265°
2026-04-26 15:49 50.52126 -4.87691 4466 ft 217 kts 270°
2026-04-26 15:50 50.52503 -4.89945 4327 ft 211 kts 295°
2026-04-26 15:50 50.53150 -4.91933 4227 ft 203 kts 297°
2026-04-26 15:50 50.53797 -4.93866 4130 ft 198 kts 297°
2026-04-26 15:50 50.54447 -4.95818 4062 ft 204 kts 297°
2026-04-26 15:51 50.55107 -4.97798 3982 ft 205 kts 297°
2026-04-26 15:51 50.55773 -4.99796 3868 ft 206 kts 297°
2026-04-26 15:51 50.56440 -5.01796 3765 ft 206 kts 297°
2026-04-26 15:51 50.57105 -5.03793 3678 ft 205 kts 297°
2026-04-26 15:52 50.57764 -5.05781 3596 ft 204 kts 297°
2026-04-26 15:52 50.58413 -5.07744 3611 ft 204 kts 297°
2026-04-26 15:52 50.58746 -5.09876 3579 ft 201 kts 261°
2026-04-26 15:52 50.58443 -5.11236 3567 ft 200 kts 238°
2026-04-26 15:53 50.57133 -5.13256 3475 ft 199 kts 205°
2026-04-26 15:53 50.55880 -5.14044 3463 ft 187 kts 200°
2026-04-26 15:53 50.54697 -5.14802 3420 ft 181 kts 201°
2026-04-26 15:53 50.53547 -5.15556 3287 ft 177 kts 201°
2026-04-26 15:54 50.52437 -5.16286 3045 ft 172 kts 199°
2026-04-26 15:54 50.51313 -5.16373 2761 ft 155 kts 161°
2026-04-26 15:54 50.50436 -5.15471 2535 ft 147 kts 138°
2026-04-26 15:54 50.49766 -5.14345 2317 ft 136 kts 129°
2026-04-26 15:55 50.49229 -5.13151 2116 ft 132 kts 124°
2026-04-26 15:55 50.48744 -5.11931 1919 ft 131 kts 123°
2026-04-26 15:55 50.48277 -5.10703 1731 ft 131 kts 122°
2026-04-26 15:55 50.47812 -5.09471 1552 ft 131 kts 122°
2026-04-26 15:56 50.47347 -5.08230 1377 ft 132 kts 123°
2026-04-26 15:56 50.46883 -5.06995 1204 ft 133 kts 122°
2026-04-26 15:56 50.46406 -5.05739 1026 ft 135 kts 119°
2026-04-26 15:56 50.45914 -5.04470 855 ft 137 kts 119°
2026-04-26 15:57 50.45436 -5.03158 654 ft 139 kts 118°
2026-04-26 15:57 50.44956 -5.01871 466 ft 136 kts 120°
2026-04-26 15:57 50.44487 -5.00623 333 ft 124 kts 120°
2026-04-26 15:57 50.44244 -4.99969 348 ft 80 kts 121°
2026-04-26 15:58 50.44113 -4.99497 353 ft 15 kts 17°
2026-04-26 15:58 50.44210 -4.99487 356 ft 7 kts
2026-04-26 15:58 50.44258 -4.99492 359 ft 8 kts 329°
2026-04-26 15:58 50.44307 -4.99594 357 ft 16 kts 296°
2026-04-26 15:59 50.44380 -4.99796 350 ft 25 kts 301°
2026-04-26 15:59 50.44465 -5.00023 346 ft 22 kts 301°
2026-04-26 15:59 50.44541 -5.00223 346 ft 23 kts 301°
2026-04-26 15:59 50.44601 -5.00384 337 ft 11 kts 301°
2026-04-26 16:00 50.44638 -5.00483 334 ft 11 kts 301°
2026-04-26 16:00 50.44667 -5.00513 333 ft 1 kts 25°
2026-04-26 16:00 50.44677 -5.00490 334 ft 2 kts 71°
2026-04-26 16:00 50.44681 -5.00470 337 ft 1 kts 75°
2026-04-26 16:01 50.44681 -5.00467 337 ft 0 kts 74°
2026-04-26 16:03 50.44681 -5.00469 333 ft 1 kts 74°
2026-04-26 16:03 50.44680 -5.00470 334 ft 0 kts 74°
2026-04-26 16:03 50.44680 -5.00471 337 ft 0 kts 74°